Flag for Botswana Weather past 2 weeks in Francistown, Botswana

Now
81 °F

Scattered clouds.


Feels Like: 81 °F
Forecast: 58 / 75 °F
Wind: 6 mph from Southeast

Location: Francistown Airport


UV Index: 5 (Moderate)

Visibility: N/A


Pressure: 30.07 "Hg

Humidity: 45%

Dew point: 57 °F

Location of FrancistownLocation

Historic Weather in Francistown

°F

Francistown temperature yesterday

Maximum temperature yesterday: 81 °F (at 3:00 PM)
Minimum temperature yesterday: 54 °F (at 6:00 AM)
Average temperature yesterday: 67 °F

Past Weeks' High & Low Weather Summary

 TemperatureHumidityPressure
High90 °F (Apr 2, 2:00 PM)100% (Apr 4, 5:00 AM)30.33 "Hg (Apr 4, 5:00 AM)
Low54 °F (Apr 7, 5:00 AM)33% (Apr 1, 3:00 PM)29.95 "Hg (Apr 1, 4:00 PM)
Average68 °F76%30.18 "Hg
* Reported Apr 1 2:00 PM — Apr 16 2:00 PM, Francistown, Weather by CustomWeather, © 2014

Note: Actual official high and low records may vary slightly from our data, if they occured in-between our weather recording intervals... More about our weather records

Advertising

Historic Weather Conditions — Data for Previous 24 hours

 ConditionsComfort  
Time TempWeatherWind HumidityBarometerVisibility
2:00 PM
Apr 16
81 °FPartly sunny.6 mph45%30.09 "HgN/A
1:00 PM81 °FPartly sunny.10 mph54%30.12 "HgN/A
12:00 PM79 °FPartly sunny.9 mph54%30.15 "HgN/A
11:00 AM77 °FScattered clouds.15 mph57%30.18 "HgN/A
9:00 AM70 °FSunny.7 mph73%30.18 "Hg10 mi
8:00 AM63 °FSunny.1 mph88%30.15 "Hg10 mi
7:00 AM55 °FSunny.2 mph94%30.12 "Hg10 mi
6:00 AM55 °FSunny.1 mph94%30.09 "Hg10 mi
5:00 AM55 °FClear.2 mph94%30.09 "Hg10 mi
4:00 AM57 °FClear.2 mph94%30.07 "Hg10 mi
3:00 AM57 °FClear.3 mph94%30.07 "Hg10 mi
2:00 AM59 °FClear.1 mph94%30.07 "Hg10 mi
12:00 AM61 °FClear.3 mph88%30.09 "Hg10 mi
11:00 PM
Apr 15
64 °FClear.2 mph83%30.09 "Hg10 mi
10:00 PM64 °FClear.2 mph83%30.09 "Hg10 mi
9:00 PM61 °FClear.1 mph94%30.09 "Hg10 mi
8:00 PM63 °FClear.2 mph83%30.09 "Hg10 mi
7:00 PM70 °FClear.3 mph64%30.07 "Hg10 mi
6:00 PM73 °FClear.3 mph57%30.04 "Hg10 mi
5:00 PM79 °FPassing clouds.6 mph45%30.04 "HgN/A
4:00 PM81 °FScattered clouds.7 mph42%30.04 "HgN/A
Weather by CustomWeather, © 2014

See weather overview